Regional Weather Roundup
Issued by NWS

Home | Current Version | Previous Version | Graphics & Text | Print | Product List | Glossary On
Versions: 1 2 3 4 5 6 7 8 9 10 11 12 13 14 15 16 17 18 19 20 21 22 23 24 25 26 27 28 29 30 31 32 33 34 35 36 37 38 39 40 41 42 43 44 45 46 47 48 49 50
000
ASUS43 KMPX 230701
RWRMN
WEATHER ROUNDUP FOR MINNESOTA
NATIONAL WEATHER SERVICE TWIN CITIES/CHANHASSEN MN
200 AM CDT WED AUG 23 2017


NOTE: "FAIR" INDICATES FEW OR NO CLOUDS BELOW 12,000 FEET WITH NO
SIGNIFICANT WEATHER AND/OR OBSTRUCTIONS TO VISIBILITY. N/A MEANS
CURRENT SKY AND/OR WEATHER CONDITIONS ARE NOT AVAILABLE.

MNZ060>063-068>070-230800-
   Twin Cities Metro

CITY           SKY/WX    TMP DP  RH WIND       PRES   REMARKS
TWIN CITIES    CLEAR     60  48  64 NW5       30.06S
ST PAUL        CLEAR     61  49  64 N3        30.06R
CRYSTAL        CLEAR     60  47  61 W8        30.04S
BLAINE         CLEAR     57  48  72 W6        30.05S
LAKEVILLE      CLEAR     55  50  82 W5        30.07S
EDEN PRAIRIE   CLEAR     59  51  75 W6        30.05F
SOUTH ST PAUL  CLEAR     58  51  76 W3        30.05S
LAKE ELMO      FAIR      57  50  77 NW5       30.06S
$$
MNZ001>005-007-008-013>017-022>024-027-028-230800-
   Northwest Minnesota

CITY           SKY/WX    TMP DP  RH WIND       PRES   REMARKS
BEMIDJI        CLEAR     46  45  93 W5        30.06S
HALLOCK        CLEAR     46  45  93 CALM      30.08S
ROSEAU         CLEAR     52  46  82 NW3       30.07S
WARROAD        CLEAR     52  46  82 NW6       30.07S
CROOKSTON      CLEAR     48  43  81 NW3       30.09S
FOSSTON        CLEAR     43  39  87 CALM      30.09S
DETROIT LAKES  CLEAR     54  46  76 W3        30.10S
MOORHEAD       CLEAR     52  46  82 CALM      30.10S
PARK RAPIDS    CLEAR     51  47  86 NW5       30.07S
MAHNOMEN       FAIR      47  44  90 CALM      30.09S
$$
MNZ006-009>011-018-025>026-230800-
   North Central Minnesota

CITY           SKY/WX    TMP DP  RH WIND       PRES   REMARKS
BAUDETTE       CLEAR     51  48  89 N3        30.05S
FLAG ISLAND      N/A     55  52  88 CALM      30.04F
INTL FALLS     CLEAR     47  45  93 NW6       30.03R
WASKISH        PTCLDY    55  52  88 NW6       30.05S
BIG FORK       CLEAR     48  46  93 CALM      30.05R
LONGVILLE      CLEAR     54  50  87 W3        30.05S
GRAND RAPIDS   CLEAR     52  50  93 N3        30.06R
CRANE LAKE     CLEAR     52  48  87 CALM      30.02S
ORR            PTCLDY    52  48  87 NW5       30.00S
COOK           CLEAR     48  48 100 CALM      30.02S
WALKER         FAIR      49  48  95 CALM      30.07R
$$
MNZ012-019>021-037-230800-
   Northeast Minnesota

CITY           SKY/WX    TMP DP  RH WIND       PRES   REMARKS
DULUTH         CLEAR     51  50  96 NW7       30.01R
ELY            CLEAR     52  50  93 NW3       29.99S
HIBBING        CLEAR     48  46  93 NW6       30.02S
EVELETH        CLEAR     53  46  77 NW5       30.02S
DULUTH HARBOR  CLEAR     61  54  77 NW14      30.00S
TWO HARBORS    CLEAR     55  52  88 NW3       29.98S
GRAND MARAIS     N/A     58  53  84 VRB7      29.92S
G MARAIS ARPRT PTCLDY    50  46  87 NW7       29.95S
$$
MNZ029>031-032-039>041-046>048-054>057-064-230800-
   West Central Minnesota

CITY           SKY/WX    TMP DP  RH WIND       PRES   REMARKS
FERGUS FALLS   CLEAR     54  48  82 CALM      30.10S
WHEATON        CLEAR     55  46  71 CALM      30.12S
MORRIS         CLEAR     52  48  87 NW3       30.10S
ALEXANDRIA     CLEAR     55  50  83 W5        30.11S
ELBOW LAKE     FAIR      49  48  94 CALM      30.11S
WADENA         CLEAR     52  46  82 CALM      30.08S
GLENWOOD       CLEAR     54  48  82 W7        30.10F
APPLETON       CLEAR     52  48  87 CALM      30.10S
BENSON         CLEAR     48  46  93 CALM      30.12S
ORTONVILLE     CLEAR     54  48  82 MISG      30.11S
MADISON        CLEAR     54  54 100 W5        30.11F
WILLMAR        FAIR      54  50  87 W3        30.12S
$$
MNZ033>034-036-042>043-049>051-058-059-230800-
   Central Minnesota

CITY           SKY/WX    TMP DP  RH WIND       PRES   REMARKS
ST CLOUD       CLEAR     54  49  83 NW5       30.07S
SAUK CENTRE    FAIR      52  49  89 CALM      30.10S
PAYNESVILLE    CLEAR     50  48  95 W5        30.10S
AITKIN         FOG       46  45  93 CALM      30.04S VSB 1/2
PINE RIVER     CLEAR     52  46  82 CALM      30.09S
BRAINERD       CLEAR     50  49  96 CALM      30.07R
STAPLES        CLEAR     48  45  87 W5        30.08S
LONG PRAIRIE   FAIR      50  46  87 CALM      30.10S
LITTLE FALLS   CLEAR     46  45  93 CALM      30.08S
LITCHFIELD     CLEAR     61  54  77 W5        30.09F
BUFFALO        CLEAR     58  49  71 W5        30.08S
MAPLE LAKE     CLEAR     58  51  78 W3        30.08S
HUTCHINSON     CLEAR     53  51  94 W3        30.10F
$$
MNZ037-044-045-052-053-230800-
   East Central Minnesota

CITY           SKY/WX    TMP DP  RH WIND       PRES   REMARKS
PRINCETON      CLEAR     52  48  87 W3        30.06S
MORA           CLEAR     50  46  87 CALM      30.07S
CAMBRIDGE      CLEAR     55  46  71 CALM      30.06S
RUSH CITY      MOCLDY    49  47  91 CALM      30.05S
MOOSE LAKE     CLEAR     50  46  87 CALM      30.02S
HINCKLEY       FAIR      52  50  93 W5        30.05S
CLOQUET        CLEAR     52  46  82 W3        30.02S
MCGREGOR       PTCLDY    54  50  87 W3        30.04S
$$
MNZ071>073-080-081-089-090-097-098-230800-
   Southwest Minnesota

CITY           SKY/WX    TMP DP  RH WIND       PRES   REMARKS
MONTEVIDEO     CLEAR     54  48  82 NW6       30.11S
GRANITE FALLS  PTCLDY    52  51  93 SW6       30.13S
CANBY          CLEAR     55  49  82 CALM      30.14S
MARSHALL       CLEAR     53  50  89 W3        30.13S
REDWOOD FALLS  CLEAR     55  50  83 NW5       30.10F
OLIVIA         CLEAR     54  50  87 W5        30.10F
PIPESTONE      CLEAR     54  48  82 CALM      30.15S
WINDOM         CLEAR     54  50  87 CALM      30.14S
WORTHINGTON    CLEAR     52  48  86 SW6       30.15F
JACKSON        CLEAR     52  50  93 CALM      30.15S
TRACY          CLEAR     55  51  86 SW8       30.13F
SLAYTON        CLEAR     51  44  75 W5        30.16S
$$
MNZ065>067-074>077-082>085-091>093-230800-
   South Central Minnesota

CITY           SKY/WX    TMP DP  RH WIND       PRES   REMARKS
MANKATO        CLEAR     55  50  83 W5        30.10S
NEW ULM        CLEAR     52  48  87 W5        30.10S
ST JAMES       CLEAR     52  48  87 SW6       30.12F
FAIRMONT       CLEAR     54  51  90 W5        30.13S
GLENCOE        CLEAR     57  54  88 W5        30.08S
FARIBAULT      CLEAR     57  52  82 W7        30.09R
OWATONNA       CLEAR     52  48  87 SW3       30.09S
WASECA         CLEAR     52  50  93 W3        30.11S
ALBERT LEA     CLEAR     57  52  82 W5        30.10F
$$
MNZ078>079-086>088-094>096-230800-
   Southeast Minnesota

CITY           SKY/WX    TMP DP  RH WIND       PRES   REMARKS
ROCHESTER      CLEAR     52  49  89 W9        30.08F
RED WING       CLEAR     54  50  87 CALM      30.05R
STANTON        CLEAR     55  50  84 CALM      30.06S
DODGE CENTER   CLEAR     52  48  87 W7        30.08F
WINONA         CLEAR     55  50  82 NW3       30.05S
AUSTIN         CLEAR     57  48  72 W6        30.09F
PRESTON        CLEAR     53  47  81 W9        30.08S
$$
ABBREVIATIONS USED IN REMARKS
   TC - TEMPERATURES IN CELSIUS
  WCI - WIND CHILL INDEX
   HX - HEAT INDEX
  VSB - VISIBILITY
$$




USA.gov is the U.S. government's official web portal to all federal, state and local government web resources and services.